Вернуться в каталог

FENGYUN 1C DEB

АктивенPO
NORAD 37445·DEBRIS·🇨🇳 China

Запущен May 10, 1999 с Taiyuan Satellite Launch Center

Loading…

Ближайшие Пролёты (ближайшие 24 часа)

TLE

СвежийSource: Space-Track

Эпоха: Sep 13, 2026, 02:59 UTC

1 37445U 99025EHP 26256.12469219  .00000959  00000-0  35076-3 0  9990
2 37445  99.2507 350.4088 0167201 224.4016 134.3657 14.28081866683551

Отслеживайте FENGYUN 1C DEB в реальном времени с AllMySat

Download on the App Store